Regional Weather Roundup
Issued by NWS

Home | Current Version | Previous Version | Graphics & Text | Print | Product List | Glossary On
Versions: 1 2 3 4 5 6 7 8 9 10 11 12 13 14 15 16 17 18 19 20 21 22 23 24 25 26 27 28 29 30 31 32 33 34 35 36 37 38 39 40 41 42 43 44 45 46 47 48 49 50
625
ASUS43 KLSX 232007
RWRMO

WEATHER SUMMARY FOR MISSOURI
NATIONAL WEATHER SERVICE SPRINGFIELD MO
300 PM CDT WED MAY 23 2018

NOTE: "FAIR" INDICATES FEW OR NO CLOUDS BELOW 12,000 FEET WITH NO
       SIGNIFICANT WEATHER AND/OR OBSTRUCTIONS TO VISIBILITY.
       CURRENT SKY AND/OR WEATHER CONDITIONS ARE NOT AVAILABLE FOR
       CHILLICOTHE AND FARMINGTON.

MOZ001>031-035>038-043-044-053-054-232100-
...NORTHERN AND WESTERN MISSOURI...

CITY           SKY/WX    TMP DP  RH WIND       PRES   REMARKS
KANSAS CTY INT PTSUNNY   88  65  46 S13       30.06F HX  90
KANSAS C DTWN  MOSUNNY   89  64  43 MISG      30.04F HX  90
LEE`S SUMMIT   MOSUNNY   88  66  48 S10       30.07F HX  90
ST JOSEPH      MOSUNNY   90  65  43 SE14G20   30.04F HX  92
CHILLICOTHE      N/A     89  66  46 VRB6      30.07F HX  91
KIRKSVILLE     MOSUNNY   86  65  49 SE8       30.11F

$$
MOZ066>068-077>081-088>096-101>105-232100-
...SOUTHWEST MISSOURI...

CITY           SKY/WX    TMP DP  RH WIND       PRES   REMARKS
SPRINGFIELD    PTSUNNY   84  67  56 SE8       30.08F
JOPLIN         TSTM      73  69  87 S13       30.09R FOG
BRANSON        TSTM      66  64  94 S5G26     30.15R

$$
MOZ032>034-039>042-045>050-055>058-069>072-232100-
...CENTRAL MISSOURI...

CITY           SKY/WX    TMP DP  RH WIND       PRES   REMARKS
COLUMBIA       MOSUNNY   87  69  54 E9        30.10F HX  91
JEFFERSON CITY MOSUNNY   87  67  51 E9        30.08F HX  90
ROLLA          MOSUNNY   85  65  51 E5        30.11F
SEDALIA        MOSUNNY   87  70  56 SE8       30.09F HX  92
WHITEMAN AFB   PTSUNNY   85  68  55 SE7       30.04F
WARRENSBURG    SUNNY     86  64  48 E7        30.07F
OSAGE BEACH    MOSUNNY   87  69  54 E8        30.09F HX  91

$$
MOZ051-052-059>065-232100-
...EAST CENTRAL MISSOURI...

CITY           SKY/WX    TMP DP  RH WIND       PRES   REMARKS
ST LOUIS INTL  MOSUNNY   85  64  49 E7        30.12F
SPIRIT OF STL  MOSUNNY   86  66  51 NE8       30.10F
ST CHARLES     SUNNY     85  67  54 E3        30.11F

$$
MOZ072>076-082>087-097>100-106>115-232100-
...SOUTH CENTRAL AND SOUTHEAST MISSOURI...

CITY           SKY/WX    TMP DP  RH WIND       PRES   REMARKS
CAPE GIRARDEAU FAIR      87  64  46 NE12      30.08F
FARMINGTON     MOSUNNY   84  67  56 E9        30.12F
POPLAR BLUFF   FAIR      85  68  56 NE7       30.07F
WEST PLAINS    CLOUDY    83  67  58 SE9       30.11F

$$




USA.gov is the U.S. government's official web portal to all federal, state and local government web resources and services.